Temp
26 26 25 24 24 24 24 23 23 23 22 22 22 22 22 22 22 22 22 22 22 22 22 22 22 21 21 20 20 21 20 21 21 15 15 15 15 15 15 15 15 15 15
26 26 25 24 24 24 24 24 23 22 22 22 23 23 22 22 23 22 22 23 23 22 22 21 22 22 21 20 20 20 20 21 20 15 14 14 15 15 15 15 16 17 15
26 26 26 25 24 24 24 24 23 23 23 23 23 22 22 22 23 22 22 22 22 22 22 21 21 21 21 21 20 20 20 20 18 15 14 14 14 14 15 15 16 16 15
26 26 27 26 25 25 24 24 23 23 23 23 23 23 23 23 22 22 22 22 22 22 21 21 21 21 20 20 19 19 19 19 18 15 14 14 14 14 14 15 15 15 14
28 27 27 26 26 25 24 24 24 23 24 23 22 22 22 22 22 22 22 22 22 22 21 21 20 19 19 19 18 19 18 18 16 15 14 13 13 13 14 16 17 17 16
28 27 27 26 25 25 24 24 24 23 23 22 22 22 21 21 20 20 21 22 22 22 22 21 20 19 19 18 18 18 18 18 17 16 15 14 14 14 15 15 16 16 16
28 28 26 26 25 24 24 24 23 23 22 22 21 21 21 20 19 19 20 20 21 22 21 21 21 20 19 18 18 17 17 17 18 17 16 15 14 14 15 14 15 17 17
27 27 26 25 25 24 24 24 23 22 22 21 21 20 20 18 18 18 18 19 19 20 21 21 21 21 20 20 19 19 18 17 17 16 16 15 15 15 15 15 15 15 15
27 27 26 25 25 24 24 24 23 22 21 21 21 20 19 18 18 17 17 18 19 20 20 20 20 20 19 19 20 20 18 17 17 17 16 16 17 16 15 14 14 14 14
26 26 25 25 25 24 24 23 22 21 21 22 21 20 20 18 17 16 16 17 18 19 19 19 18 18 18 18 18 19 20 19 19 17 16 16 16 16 15 15 16 16 17
27 26 25 24 24 24 23 21 20 21 22 21 21 20 19 18 17 17 16 17 17 18 19 19 18 18 18 18 18 18 19 19 19 18 18 18 17 16 15 15 16 16 17
26 25 24 24 24 23 22 21 22 22 21 20 20 20 21 19 17 17 16 16 16 16 18 19 19 18 18 17 17 17 18 18 19 19 20 20 18 18 18 17 17 17 18
24 23 23 22 22 21 21 20 20 20 22 23 22 22 22 19 19 17 17 16 16 16 17 17 17 17 17 16 16 16 16 17 19 21 21 21 21 20 20 19 18 17 17
19 20 20 20 20 20 21 20 21 23 22 21 22 21 21 19 20 18 16 16 16 16 16 16 16 16 16 16 16 16 16 17 18 19 20 20 20 19 18 18 17 16 16
19 19 19 20 20 19 21 21 22 22 20 22 22 21 22 22 19 17 17 17 17 17 18 18 17 17 17 17 17 17 16 17 17 18 19 20 20 20 19 18 17 17 17
20 21 22 22 21 21 21 20 20 19 19 19 18 19 19 18 18 17 16 16 16 15 15 14 15 15 16 18 18 18 18 17 18 18 18 17 16 16 16 17 18 18 18
21 22 22 21 22 22 23 23 22 19 19 19 18 18 18 18 17 17 16 16 16 15 14 14 14 14 14 15 15 15 16 16 16 17 16 14 14 14 13 14 15 17 18
19 19 21 22 23 23 23 23 24 24 22 20 18 19 19 18 17 17 17 16 17 16 15 15 14 14 14 14 14 14 14 14 14 14 14 13 13 12 12 13 13 13 13
16 17 19 19 21 21 22 23 24 25 24 24 22 18 18 18 18 18 17 16 20 21 20 19 17 15 14 14 13 13 13 13 13 12 12 12 11 11 10 11 12 12 12
15 15 16 17 17 19 20 21 22 22 24 23 21 19 18 18 19 19 17 19 20 21 21 19 17 16 14 13 13 13 12 12 11 11 11 10 10 10 10 10 11 12 11
14 14 15 15 16 17 17 19 22 24 24 22 21 18 18 20 21 21 20 20 19 18 17 17 18 16 16 15 15 15 15 14 13 12 11 10 10 10 10 9 10 10 11
17 18 18 18 21 22 22 23 23 23 23 20 19 18 18 19 19 18 18 17 17 17 18 17 18 16 16 15 14 14 14 13 13 13 13 12 11 11 10 10 10 10 10
17 19 20 20 20 20 21 21 21 20 20 19 18 16 16 16 17 17 17 16 15 15 15 15 14 14 14 13 12 10 10 10 10 11 11 12 12 12 11 11 10 10 10
14 15 16 17 18 18 17 17 18 17 16 16 17 18 17 17 16 15 15 14 14 13 13 13 13 12 12 11 10 9 9 10 10 10 10 11 10 9 9 9 10 10 10
12 12 13 13 16 16 17 16 16 16 16 16 15 15 15 15 14 14 13 13 13 13 13 12 12 12 11 11 10 9 9 9 9 9 10 11 11 10 10 10 9 9 8
12 11 12 12 13 15 15 15 15 15 14 14 14 14 14 14 13 14 13 14 12 11 11 12 12 11 10 10 9 9 9 8 8 8 9 10 10 10 10 10 9 9 8
Height
772 774 777 779 782 784 785 786 787 789 790 789 790 790 790 791 792 792 792 793 793 793 792 791 790 790 791 790 790 791 793 796 799 809 813 816 817 819 821 823 824 825 825
770 772 774 778 781 783 784 786 786 788 789 788 789 789 790 790 791 792 792 790 790 791 791 790 789 788 788 787 786 787 789 794 797 805 811 814 816 819 821 824 825 827 827
769 770 771 774 778 780 782 784 787 787 788 788 788 788 788 789 789 790 790 790 790 790 789 789 789 787 786 786 786 786 788 792 797 801 808 812 816 818 820 824 825 826 829
762 767 768 771 774 777 780 782 785 786 787 788 787 788 788 788 788 788 789 790 789 789 790 789 787 787 787 786 786 787 790 792 796 800 806 810 816 818 821 823 825 826 828
758 762 765 768 772 775 777 779 781 783 784 785 786 787 787 788 787 787 788 789 789 788 788 788 787 787 787 787 788 788 790 794 796 799 804 808 813 816 818 821 823 824 827
754 758 762 765 770 772 775 778 779 781 782 784 785 785 787 787 786 787 787 787 787 787 787 788 786 786 785 787 789 790 791 793 795 799 800 804 808 812 816 818 820 822 825
749 752 757 760 763 767 772 775 777 778 779 781 782 783 785 786 786 786 787 786 786 786 786 787 786 785 788 789 789 790 791 793 795 797 798 801 804 807 811 815 817 818 818
747 750 754 758 760 763 765 769 774 775 777 778 780 781 782 783 783 785 786 785 786 786 786 786 787 788 789 789 789 791 792 793 794 795 797 799 802 805 808 811 813 815 818
742 746 751 754 756 759 760 762 766 771 774 776 776 778 778 778 779 783 784 785 785 785 786 787 788 789 789 790 790 790 793 794 795 796 797 798 801 804 807 810 812 814 816
739 743 748 752 754 755 758 759 763 763 769 772 774 775 776 777 775 779 782 784 785 784 785 786 786 787 788 789 789 791 791 792 793 795 796 797 799 801 803 806 808 810 809
734 740 745 749 752 754 757 757 758 762 760 769 772 773 775 777 775 776 781 783 784 784 784 784 783 783 784 786 788 789 790 790 792 794 794 795 797 798 801 802 803 804 803
734 739 744 748 750 751 756 759 758 759 761 764 770 771 771 773 773 773 777 781 784 784 783 782 781 782 784 785 787 789 789 789 789 791 790 790 791 792 793 796 798 799 800
730 738 743 746 750 754 754 756 759 761 760 759 766 767 766 769 772 772 774 777 781 782 781 781 783 785 785 785 786 787 789 790 789 786 785 785 787 788 790 791 793 794 794
728 730 745 748 750 752 752 751 755 757 759 761 764 766 766 769 770 773 775 776 777 778 780 781 782 782 783 783 784 785 785 786 785 783 781 781 782 784 786 788 791 792 793
728 735 747 748 750 750 750 752 752 755 758 761 763 765 763 765 768 770 773 774 774 776 775 776 776 777 779 779 779 779 779 780 780 780 780 779 779 781 782 785 788 788 788
737 740 743 745 746 748 750 752 753 752 758 762 764 765 766 767 768 769 771 771 771 772 772 772 773 773 772 772 772 772 774 774 773 774 775 775 775 777 778 779 780 780 780
737 738 740 742 743 744 744 741 748 755 759 762 764 765 765 766 767 768 768 768 768 768 768 767 767 768 766 767 768 770 768 769 768 768 768 770 772 773 775 774 774 773 770
738 739 739 740 739 741 743 745 744 748 753 756 760 760 760 761 764 766 766 766 766 763 764 765 765 764 764 764 763 765 767 765 764 766 766 767 769 770 768 768 767 767 769
735 739 741 741 742 743 744 744 746 745 747 748 750 756 759 759 761 762 762 763 761 758 757 761 763 763 763 762 762 763 764 763 763 763 763 763 764 765 766 766 765 763 764
744 746 745 750 748 748 748 749 749 747 744 745 748 754 758 758 759 759 759 760 759 757 755 758 761 762 762 761 760 761 762 762 762 761 760 760 761 761 761 761 761 761 761
752 755 755 756 750 749 749 747 743 742 741 743 747 753 756 756 757 757 757 760 759 760 759 761 760 760 760 760 761 762 761 761 760 760 759 757 757 756 756 757 756 756 755
750 748 748 747 744 741 741 741 740 741 742 746 750 755 754 757 758 760 761 763 762 762 762 762 761 761 760 761 761 760 759 758 758 758 755 754 753 752 752 751 750 750 749
749 747 745 745 745 744 746 744 745 745 746 749 752 756 761 760 760 764 765 767 766 766 767 766 765 765 765 764 763 763 762 762 760 758 755 753 752 751 750 747 744 745 744
751 750 749 747 745 747 747 745 749 753 755 756 757 757 761 763 766 769 770 770 770 770 770 771 771 770 770 769 768 766 765 764 761 758 755 755 753 749 748 746 744 741 739
755 755 752 753 752 753 752 753 755 757 759 760 761 764 767 769 770 771 772 773 773 774 775 775 774 773 773 772 770 769 767 764 761 760 758 755 752 750 748 746 744 740 737
759 759 758 759 759 758 759 760 761 763 764 765 767 769 771 771 772 774 774 773 775 776 776 776 775 775 774 774 772 769 766 763 761 758 757 754 751 749 748 745 743 740 737
Wind_Speed
10 8 7 8 10 9 8 6 5 4 4 4 4 4 2 2 4 4 5 4 6 5 6 7 7 7 9 9 9 12 15 12 8 5 13 14 12 10 10 9 10 8 9
10 7 8 10 10 9 8 6 5 5 5 4 4 3 4 5 4 5 6 4 5 5 4 5 7 5 4 7 7 11 13 11 11 12 15 15 13 12 11 9 10 8 8
13 11 8 13 11 10 8 7 6 6 6 6 4 4 5 5 4 4 5 6 5 5 4 3 4 4 5 4 4 7 10 11 10 14 12 14 14 13 13 8 9 11 8
16 12 9 11 12 11 9 8 7 7 7 7 6 6 5 5 5 5 5 6 6 5 4 4 3 3 3 2 1 5 9 11 10 17 14 15 16 17 14 12 11 9 9
13 13 10 11 10 11 10 9 9 8 9 8 6 7 7 7 8 7 4 5 6 5 3 4 1 3 3 1 2 6 11 10 13 14 14 12 13 16 15 15 13 13 12
13 13 11 12 11 11 10 9 8 9 8 8 7 8 8 10 3 4 6 6 5 5 5 4 1 2 1 3 4 7 10 11 12 12 12 15 16 18 16 16 14 15 10
17 16 15 16 15 14 11 9 9 7 8 7 9 8 9 8 9 6 7 6 5 5 4 4 6 4 3 2 5 7 7 11 11 11 13 15 16 21 19 19 20 19 11
18 16 16 17 16 15 13 11 7 5 5 6 8 7 8 7 10 11 10 8 6 5 5 4 6 1 2 2 4 4 4 6 9 8 9 12 15 19 23 20 19 12 12
19 17 17 18 18 17 15 12 9 5 4 5 5 4 7 8 12 14 13 11 9 8 6 4 4 3 4 6 3 4 4 4 5 7 7 11 13 14 18 16 14 15 9
21 19 18 18 18 17 15 12 10 8 4 3 3 5 6 7 10 14 14 14 13 10 9 8 10 7 6 6 4 3 5 6 6 5 7 10 11 13 18 19 16 18 18
20 19 18 17 16 13 12 10 9 8 6 1 4 3 6 8 6 7 13 15 14 11 11 10 10 11 11 9 11 6 6 5 6 7 8 9 10 13 16 19 20 20 17
18 18 17 16 14 14 12 11 9 8 6 4 5 6 7 6 7 10 15 17 16 13 13 11 8 9 8 11 12 12 11 9 9 10 13 14 17 19 18 18 18 16 14
20 17 16 15 13 11 13 11 7 6 6 5 6 8 7 7 6 8 12 14 16 19 18 12 6 7 9 11 15 15 13 11 12 13 13 13 13 13 12 12 13 13 20
18 21 14 14 14 14 12 12 7 5 4 4 9 9 4 6 5 6 9 14 17 17 19 18 15 12 12 11 12 16 17 14 16 17 16 15 13 13 13 14 14 14 14
8 13 13 10 10 10 8 7 7 4 3 4 4 5 6 6 4 4 6 9 11 12 14 14 14 16 18 17 16 17 19 19 19 19 18 17 13 13 17 16 17 19 18
9 11 11 12 12 12 12 9 4 4 3 6 4 4 2 3 6 7 8 10 12 14 13 15 19 19 16 17 16 19 21 22 21 21 19 16 15 15 16 16 23 23 21
15 10 10 9 9 8 4 5 12 7 7 7 7 6 5 5 5 7 8 8 9 11 11 11 16 16 19 22 24 23 22 23 19 19 22 20 24 25 23 20 17 22 21
6 7 9 5 5 7 8 6 4 12 14 16 16 12 7 7 6 8 8 7 8 7 6 7 9 10 11 13 14 19 21 22 23 22 21 24 22 20 21 22 21 18 17
19 17 10 10 7 8 7 5 8 7 6 6 13 14 9 6 6 10 10 8 8 9 3 4 5 5 7 7 10 12 15 16 17 19 22 25 27 27 26 24 22 26 26
11 13 14 12 13 11 9 7 11 15 10 3 8 12 10 8 10 10 10 8 9 12 13 2 3 6 7 6 5 5 8 10 12 13 16 20 21 20 22 24 25 25 25
5 8 10 16 19 22 27 24 15 9 7 8 10 7 9 3 13 7 3 7 16 19 19 10 8 10 10 7 4 3 5 6 8 11 12 14 20 21 25 26 26 27 27
10 12 15 20 16 12 6 8 6 6 7 13 8 5 6 3 9 16 17 15 12 11 12 10 10 16 18 18 17 13 14 15 13 14 11 11 14 16 20 21 21 24 25
7 9 8 8 10 6 6 8 3 11 11 15 17 19 16 16 18 14 12 14 16 14 13 13 14 13 13 12 14 15 14 16 15 14 14 15 14 14 16 19 18 18 20
5 3 5 7 4 6 16 19 14 18 19 17 14 14 12 11 12 11 9 11 10 10 9 10 10 11 10 11 13 13 15 16 16 15 13 12 13 14 15 16 17 19 21
9 9 10 10 7 10 13 14 15 13 13 14 15 13 10 10 9 9 9 10 10 9 9 9 9 9 9 11 12 10 13 15 15 14 11 11 11 11 11 11 13 14 14
12 14 15 13 12 14 13 14 14 14 14 14 13 12 11 10 14 10 9 10 10 8 9 8 9 10 12 11 11 12 13 13 13 12 10 11 11 11 12 13 13 12 13
Wind_Direction
190 178 177 189 188 185 198 191 197 215 227 224 229 261 249 254 258 253 260 236 235 250 257 256 263 255 259 251 244 220 216 204 144 120 160 163 159 158 145 145 126 130 141
185 189 179 181 188 187 194 190 192 208 205 205 216 225 244 245 271 275 263 263 253 256 272 262 275 284 281 270 244 209 201 179 152 145 159 167 164 159 153 161 157 151 143
187 192 189 173 187 184 186 194 199 202 214 219 216 219 230 246 258 270 286 269 254 252 256 264 274 282 284 301 274 200 183 159 152 162 150 171 170 167 159 163 149 143 146
170 197 185 182 183 185 187 190 205 219 229 235 237 243 249 252 258 249 265 269 260 243 257 263 279 294 294 292 314 169 158 147 154 154 154 163 168 168 168 171 166 166 158
175 206 184 192 187 187 184 192 208 219 233 243 240 241 253 252 256 218 249 260 252 247 238 258 150 303 248 169 147 162 161 164 158 162 158 161 170 177 186 187 186 181 181
184 201 188 185 185 189 188 201 215 220 236 242 253 251 257 262 306 262 244 279 260 260 243 244 252 19 106 219 194 178 176 174 171 176 177 181 188 192 191 188 179 176 181
189 194 189 184 184 185 191 203 213 225 242 239 257 261 270 270 243 255 237 240 258 246 249 246 258 127 175 143 201 206 194 186 193 190 193 195 186 194 192 192 196 205 202
190 192 188 187 185 186 189 197 220 239 248 252 262 264 263 233 234 254 242 229 242 244 252 251 268 188 207 175 165 155 178 203 208 199 210 211 208 202 198 199 201 192 208
193 189 190 189 184 187 192 190 199 223 244 258 280 283 252 246 249 242 234 230 245 242 233 236 248 248 239 203 232 172 159 171 201 204 210 223 204 206 198 197 203 196 215
192 190 192 192 188 190 191 188 182 175 202 251 282 274 281 267 260 251 226 228 253 240 229 228 232 217 234 222 211 202 221 201 198 192 221 211 200 204 197 200 206 204 213
188 187 187 188 190 192 190 177 177 183 153 236 269 273 264 262 259 231 228 232 248 262 251 219 227 230 229 223 210 243 232 210 194 205 205 199 199 199 207 221 226 224 234
182 182 186 185 187 178 182 181 180 175 159 184 254 253 257 261 257 241 232 239 246 264 267 282 220 214 242 228 222 231 238 213 220 221 225 213 199 201 207 214 227 237 237
175 176 174 172 171 171 169 151 168 190 237 211 248 262 266 230 240 240 228 230 241 258 262 280 322 277 257 242 233 231 246 240 237 240 240 236 227 230 226 210 205 220 242
147 136 160 167 170 174 174 164 195 228 241 239 263 261 264 236 248 216 234 243 249 247 252 256 250 251 251 240 246 246 236 237 238 239 236 238 232 209 210 211 222 223 229
148 149 181 181 176 168 183 173 178 174 147 278 269 282 302 284 287 252 246 248 248 254 250 247 239 240 243 243 238 232 233 231 236 242 247 244 241 237 215 213 228 228 229
179 181 191 186 189 186 181 156 195 109 155 219 253 254 335 346 315 299 280 270 270 272 279 258 256 266 265 249 242 239 237 231 232 240 238 238 257 248 262 242 230 231 236
218 199 195 193 188 186 169 161 150 173 200 210 204 207 210 235 277 286 283 289 281 271 251 245 242 246 248 256 262 269 256 257 259 238 225 235 235 237 255 252 264 249 236
196 171 175 196 171 151 187 187 212 179 197 203 208 198 207 230 265 271 278 293 266 244 245 276 275 272 266 259 264 267 267 265 262 252 246 245 245 247 252 256 256 270 283
51 38 36 19 12 356 17 312 260 230 219 254 188 187 189 200 232 255 264 258 284 305 290 298 297 295 289 286 293 289 283 277 275 268 262 260 256 250 252 257 259 249 248
34 23 18 5 333 315 306 249 254 286 281 141 94 135 193 214 234 232 233 238 303 327 330 229 302 313 297 293 293 282 278 279 273 268 266 265 264 250 245 250 247 250 253
161 206 211 230 236 241 237 237 239 267 297 49 110 115 159 303 340 45 49 38 25 46 54 29 358 347 330 303 258 278 295 290 274 267 266 262 261 247 248 247 247 250 250
288 256 230 222 246 284 335 303 282 305 23 65 104 102 54 326 58 51 48 43 35 20 14 1 2 27 30 32 33 33 21 24 12 347 296 268 251 249 250 248 249 249 253
288 288 270 255 259 285 276 247 319 23 13 43 81 81 75 68 67 58 54 50 55 39 32 31 29 21 8 10 13 17 6 357 348 339 334 332 334 316 279 266 255 263 257
9 349 357 12 27 330 57 70 80 85 85 88 86 78 71 69 63 56 51 47 46 43 38 44 43 39 37 36 31 30 27 16 11 358 350 333 327 325 315 313 296 286 282
54 65 69 65 75 77 87 86 81 82 77 75 75 78 84 76 68 68 65 75 63 59 54 55 57 39 45 41 33 22 11 9 8 5 344 349 351 350 348 344 341 332 319
91 75 74 80 84 85 83 84 87 88 86 88 87 87 83 80 84 75 73 71 76 61 60 50 39 50 38 21 4 1 356 352 351 358 358 338 339 337 344 339 339 340 337